Home > Weather > Howell > Past weeks

Flag for U.S.A. Weather for the Past 2 Weeks in Howell, Michigan, U.S.A.

Now
18 °F

More clouds than sun.


Feels Like: 5 °F
Forecast: 13 / 21 °F
Wind: 12 mph from Northwest

Location: Livingston County Airport

Current Time: Feb 10, 2016 at 6:17:10 PM

Latest Report: Feb 10, 2016 at 5:34 PM


Visibility: 10 mi

Pressure: 29.88 "Hg

Humidity: 57%

Dew point: 5 °F

Location of HowellLocation

Historic Weather in Howell — Graph

°F

Howell Temperature Yesterday

Maximum temperature yesterday: 33 °F (at 12:34 AM)
Minimum temperature yesterday: 24 °F (at 11:54 PM)
Average temperature yesterday: 28 °F

High & Low Weather Summary for the Past Weeks

 TemperatureHumidityPressure
High53 °F (Feb 3, 5:34 AM)100% (Feb 1, 8:34 AM)30.32 "Hg (Feb 1, 8:34 AM)
Low17 °F (Feb 10, 8:34 AM)49% (Feb 6, 3:55 PM)29.43 "Hg (Feb 3, 2:54 AM)
Average33 °F80%29.86 "Hg
* Reported Jan 26 4:14 PM — Feb 10 4:14 PM, Howell, Weather by CustomWeather, © 2016

Note: Actual official high and low records may vary slightly from our data, if they occured in-between our weather recording intervals... More about our weather records

Advertising

Howell Weather History for the Previous 24 Hours

 ConditionsComfort  
Time TempWeatherWind HumidityBarometerVisibility
4:14 PM
Wed, Feb 10
19 °FMore clouds than sun.12 mph55%29.84 "Hg10 mi
3:55 PM19 °FMore clouds than sun.13 mph56%29.83 "Hg7 mi
3:34 PM19 °FMore clouds than sun.13 mph56%29.83 "Hg10 mi
3:14 PM19 °FMore clouds than sun.15 mph57%29.82 "Hg7 mi
2:55 PM20 °FMore clouds than sun.18 mph52%29.82 "Hg10 mi
2:34 PM19 °FMore clouds than sun.16 mph56%29.82 "Hg7 mi
2:14 PM19 °FCloudy.12 mph72%29.81 "Hg10 mi
1:55 PM18 °FCloudy.9 mph75%29.81 "Hg5 mi
1:34 PM19 °FLight snow. Cloudy.17 mph73%29.82 "Hg2 mi
1:14 PM19 °FMore clouds than sun.14 mph70%29.81 "Hg10 mi
12:55 PM19 °FLight snow. Cloudy.13 mph69%29.82 "Hg2 mi
12:34 PM20 °FCloudy.14 mph57%29.82 "Hg10 mi
12:14 PM19 °FMore clouds than sun.10 mph58%29.83 "Hg10 mi
11:55 AM19 °FMore clouds than sun.13 mph60%29.83 "Hg10 mi
11:34 AM19 °FMore clouds than sun.15 mph61%29.83 "Hg10 mi
11:15 AM19 °FMore clouds than sun.10 mph63%29.83 "Hg10 mi
10:55 AM18 °FMore clouds than sun.10 mph64%29.83 "Hg10 mi
10:34 AM18 °FCloudy.15 mph68%29.82 "Hg10 mi
10:15 AM18 °FLight snow. Mostly cloudy.13 mph73%29.81 "Hg10 mi
9:54 AM18 °FLight snow. Cloudy.10 mph75%29.80 "Hg10 mi
9:34 AM18 °FMore clouds than sun.10 mph75%29.80 "Hg7 mi
9:15 AM17 °FBroken clouds.14 mph78%29.79 "Hg10 mi
8:54 AM17 °FBroken clouds.10 mph76%29.78 "Hg10 mi
8:34 AM17 °FCloudy.9 mph79%29.78 "Hg10 mi
8:15 AM18 °FLight snow. Cloudy.13 mph82%29.77 "Hg4 mi
7:54 AM18 °FLight snow. Cloudy.9 mph85%29.77 "Hg3 mi
7:34 AM19 °FSnow. Low clouds.9 mph87%29.76 "Hg1 mi
7:15 AM18 °FLight snow. Overcast.10 mph86%29.76 "Hg4 mi
6:54 AM18 °FLight snow. Overcast.12 mph85%29.75 "Hg4 mi
6:34 AM18 °FLight snow. Overcast.10 mph85%29.74 "Hg4 mi
6:15 AM18 °FLight snow. Overcast.12 mph85%29.74 "Hg4 mi
5:54 AM18 °FLight snow. Overcast.13 mph84%29.73 "Hg4 mi
5:34 AM19 °FOvercast.12 mph81%29.73 "Hg7 mi
5:15 AM19 °FLight snow. Mostly cloudy.14 mph81%29.72 "Hg5 mi
4:54 AM20 °FMostly cloudy.12 mph79%29.72 "Hg10 mi
4:34 AM20 °FLight snow. Mostly cloudy.15 mph80%29.71 "Hg10 mi
4:15 AM21 °FLight snow. Mostly cloudy.15 mph80%29.71 "Hg10 mi
3:54 AM21 °FLight snow. Overcast.15 mph80%29.71 "Hg10 mi
3:34 AM21 °FLight snow. Mostly cloudy.12 mph80%29.71 "Hg10 mi
3:15 AM22 °FMostly cloudy.9 mph78%29.71 "Hg10 mi
2:54 AM22 °FMostly cloudy.13 mph78%29.71 "Hg10 mi
2:34 AM22 °FMostly cloudy.13 mph77%29.71 "Hg10 mi
2:15 AM22 °FOvercast.9 mph78%29.70 "Hg10 mi
1:54 AM22 °FMostly cloudy.10 mph80%29.70 "Hg10 mi
1:35 AM22 °FOvercast.10 mph82%29.70 "Hg10 mi
1:14 AM23 °FLight snow. Overcast.10 mph84%29.71 "Hg5 mi
12:54 AM23 °FLight snow. Mostly cloudy.10 mph83%29.71 "Hg7 mi
12:35 AM23 °FLight snow. Mostly cloudy.14 mph80%29.71 "Hg7 mi
11:54 PM
Tue, Feb 9
24 °FLight snow. Overcast.12 mph79%29.71 "Hg10 mi
11:35 PM24 °FLight snow. Overcast.13 mph78%29.71 "Hg10 mi
11:14 PM24 °FLight snow. Overcast.13 mph79%29.71 "Hg10 mi
10:54 PM24 °FLight snow. Overcast.12 mph79%29.71 "Hg10 mi
10:35 PM24 °FOvercast.8 mph79%29.70 "Hg10 mi
9:54 PM25 °FLight snow. Overcast.13 mph82%29.70 "Hg7 mi
9:35 PM25 °FOvercast.13 mph81%29.70 "Hg10 mi
9:14 PM25 °FOvercast.12 mph80%29.70 "Hg10 mi
8:35 PM25 °FOvercast.18 mph79%29.70 "Hg10 mi
7:35 PM26 °FOvercast.15 mph79%29.69 "Hg10 mi
7:14 PM26 °FOvercast.14 mph79%29.69 "Hg10 mi
6:35 PM26 °FOvercast.15 mph80%29.67 "Hg10 mi
Weather by CustomWeather, © 2016

See weather overviewHow to use our weather pages